sat.trackr.live / text

‹ back to catalog

STARLINK-31648

NORAD 59266 · 2024-050N

PAYLOAD ACTIVE UNKNOWN

§ Identity

Operator
Country
US
Launch date
2024-03-19
Launch site
AFWTR
Launch vehicle
Mass (kg)
RCS (m²)

Purposes: comms

External: N2YO · Heavens-Above · Gunter

§ Orbital elements

Epoch: 2026-05-25T03:14:38.059008Z

Period
94.11 min
Inclination
53.1601°
Eccentricity
0.0000880
Mean motion
15.30198642 rev/d
Perigee alt
474.6 km
Apogee alt
475.8 km
Semi-major
6,853.4 km
B*
3.8659e-5
RAAN
185.8481°
Arg perigee
81.2927°
Mean anomaly
278.8173°
Rev number
12,225

§ Raw data

STARLINK-316481 59266U 24050N   26145.13516272  .00000786  00000+0  38659-4 0  99992 59266  53.1601 185.8481 0000880  81.2927 278.8173 15.30198642122253

JSON: /api/v1/satellites/59266 · /tle

For live sub-satellite position, see the globe view (requires WebGL).

§ Visibility from observer

Set your observer location to see the next 7 days of passes ≥ 10°. The values pass through the URL so the page stays shareable.

No JS? Fill the form by hand. The geolocation button needs JavaScript.